sat.trackr.live / text

‹ back to catalog

STARLINK-5320

NORAD 55289 · 2023-010W

PAYLOAD ACTIVE UNKNOWN

§ Identity

Operator
Country
US
Launch date
2023-01-19
Launch site
AFWTR
Launch vehicle
Mass (kg)
RCS (m²)

Purposes: comms

External: N2YO · Heavens-Above · Gunter

§ Orbital elements

Epoch: 2026-05-25T02:34:21.120096Z

Period
96.11 min
Inclination
69.9990°
Eccentricity
0.0003563
Mean motion
14.98330758 rev/d
Perigee alt
569.6 km
Apogee alt
574.5 km
Semi-major
6,950.2 km
B*
-1.0163e-5
RAAN
191.8644°
Arg perigee
267.5534°
Mean anomaly
92.5217°
Rev number
18,471

§ Raw data

STARLINK-53201 55289U 23010W   26145.10718889 -.00000214  00000+0 -10163-4 0  99982 55289  69.9990 191.8644 0003563 267.5534  92.5217 14.98330758184710

JSON: /api/v1/satellites/55289 · /tle

For live sub-satellite position, see the globe view (requires WebGL).

§ Visibility from observer

Set your observer location to see the next 7 days of passes ≥ 10°. The values pass through the URL so the page stays shareable.

No JS? Fill the form by hand. The geolocation button needs JavaScript.